KJAU

Details ICAO KJAU
Name Campbell County
Region United States
Timezone America/New_York (UTC-4.0)
Plans Departing 2
Arriving 1
Stats Elevation 1,180 ft / 360 m (AMSL)
Location 36.334089° -84.162965°
Runways 1
Magnetic Variation 5.700° W
Sunrise 2018-05-24 10:25:27 UTC / 2018-05-24 06:25:27 Local
Sunset 2018-05-25 00:44:27 UTC / 2018-05-24 20:44:27 Local
Advertisement - Login to hide

Runways

ID Width Length Bearing (true) Bearing (mag) Surface Threshold Offset Overrun Length
05 75 ft / 23 m 4,004 ft / 1,221 m 45.55° 51.25° Asphalt 0 ft / 0 m 0 ft / 0 m
23 75 ft / 23 m 4,004 ft / 1,221 m 225.56° 231.26° Asphalt 0 ft / 0 m 0 ft / 0 m

Map

Weather


0- 5 10 15 20 25 30 35+ Temperature / ° C

Clouds and Precipitation
Forecast for 2018-05-24 06:00 UTC. Updated an hour ago

Ground ~20,000 ft ~40,000 ft Winds

METAR

KJAU 240615Z AUTO 00000KT 10SM CLR 18/17 A3016 RMK A01

TAF

Not found

Frequencies

Recorded 124.97 MHz AWOS 3
Unicom 122.80 MHz CTAF/UNICOM
Warning: Do not use this data for real-world aviation or navigation. No guarantee of current accuracy is given.